User: anonymous   Login
Location: Kerb�bon
(47.7970°N, 3.3487°W)
Time: 08:07:39
(UTC+00:00)
Language:

ERBS - Orbit

View from above orbital plane
View from above orbital plane
View from above satellite
View from above satellite

Ground track
Ground track

The orbit data is extracted from the following two-line orbital elements,

1 15354U 84108B   21216.78887592  .00005528  00000-0  92693-4 0  9998
2 15354  57.0051  75.5316 0013828 111.6261 248.6273 15.53438639 31716
Epoch (UTC): 04 August 2021 18:55:58
Eccentricity: 0.0013828
inclination: 57.0051°
perigee height: 397 km
apogee height: 416 km
right ascension of ascending node: 75.5316°
argument of perigee: 111.6261°
revolutions per day: 15.53438639
mean anomaly at epoch: 248.6273°
orbit number at epoch: 3171

The dashed part of the orbit path shows where the satellite is in the earth's shadow,  

DLR